Location: Celcikli
(36.4852°N, 30.5218°E)
Time: 10:32:32
(UTC+00:00)

Daily predictions for brighter satellites

Satellite Brightness Start Highest point End
(mag) Time Altitude Azimuth Time Altitude Azimuth Time Altitude Azimuth
Timation 2 Rocket 4.2 15:06:12 10° SSW 15:12:59 73° ESE 15:19:51 10° NNE
Cosmos 1441 Rocket 3.9 15:12:37 10° NNW 15:15:53 50° W 15:19:09 10° S
MOS 1 Rocket 4.2 15:14:12 10° ESE 15:17:36 23° ENE 15:21:06 10° NNE
Cosmos 2233 Rocket 4.4 15:14:04 10° SSW 15:20:20 73° W 15:26:40 10° N
Cosmos 2061 Rocket 4.2 15:16:10 10° S 15:22:29 79° W 15:28:46 10° N
SL-12 R/B(2) 4.3 15:16:14 10° SSW 15:23:51 84° WNW 15:33:04 10° NNE
ATLAS 5 CENTAUR R/B 1.9 15:19:32 10° NNW 15:24:15 67° ENE 15:30:05 10° SE
Cosmos 407 Rocket 3.5 15:21:02 10° SSW 15:26:14 89° WNW 15:31:25 10° NNE
SAR-Lupe-3 3.7 15:27:24 10° NNE 15:30:02 88° WNW 15:32:39 10° SSW
SPOT 1/Viking Rocket 4.3 15:30:41 10° SE 15:35:05 29° ENE 15:39:31 10° N
Cosmos 1464 Rocket 4.4 15:30:23 10° SSE 15:36:12 41° E 15:41:58 10° NNE
RESURS DK-1 3.0 15:33:45 10° N 15:37:22 32° ENE 15:40:57 10° SE
BlueWalker 3 3.5 15:36:36 10° S 15:39:10 18° SE 15:40:44 14° E
Cosmos 1869 3.2 15:36:20 10° SSW 15:39:51 73° W 15:43:21 10° N
CZ-2D R/B 2.6 15:36:53 10° SSE 15:40:02 83° E 15:43:12 10° N
Cosmos 1602 4.2 15:38:15 10° NNE 15:40:49 24° ENE 15:43:21 10° SE
ISS -1.5 15:39:02 10° WNW 15:41:22 17° NNW 15:43:43 10° NNE
DELTA 2 R/B (1) 4.4 15:37:52 10° SW 15:42:58 38° SSE 15:46:56 16° E
SJ-12 3.6 15:40:42 10° SSE 15:44:29 87° ENE 15:48:17 10° NNW
AQUARIUS 4.0 15:41:34 10° SSE 15:45:55 69° ENE 15:50:19 10° N
COSMO-SKYMED 1 3.0 15:45:52 10° NNE 15:49:40 36° E 15:53:27 10° SSE
Cosmos 540 Rocket 3.4 15:48:07 10° N 15:53:11 60° ENE 15:58:12 10° SSE
Cosmos 1400 Rocket 3.1 15:49:37 10° SSE 15:53:13 41° E 15:56:32 12° NNE
Cosmos 1763 Rocket 3.4 15:53:15 10° NNW 15:58:28 82° ENE 16:03:34 10° SSE
Cosmos 1975 Rocket 4.1 15:54:56 10° NNW 15:59:07 48° W 16:03:19 10° SSW
SMAP 4.4 15:56:35 10° S 16:01:00 43° W 16:05:27 10° NNW
Cosmos 2151 Rocket 3.5 15:56:39 10° S 16:01:03 65° E 16:05:30 10° NNE
Cosmos 1812 2.9 15:58:46 10° SSW 16:01:36 49° W 16:04:25 10° N
Cosmos 44 Rocket 4.4 15:58:40 10° SW 16:03:08 42° NW 16:07:47 10° NNE
OAO 2 Rocket 3.4 15:58:45 10° W 16:03:46 74° S 16:06:57 23° ESE
Cosmos 1943 Rocket 3.2 15:59:24 10° SW 16:04:46 46° WNW 16:10:08 10° N
OAO 3 Rocket 3.1 16:01:44 10° W 16:06:24 75° S 16:08:48 28° E
IRAS Rocket 4.4 16:01:21 10° SE 16:06:40 48° ENE 16:11:58 10° N
Cosmos 1072 Rocket 4.4 16:03:08 10° S 16:09:18 85° E 16:15:27 10° N
Cosmos 2058 2.6 16:06:49 10° N 16:10:47 71° E 16:14:44 10° SSE
Okean 1 Rocket 3.2 16:06:56 10° SSE 16:11:12 51° E 16:14:35 15° NNE
Sich 1 Rocket 3.7 16:07:30 10° S 16:11:54 53° E 16:16:03 12° NNE
Aureole 3 Rocket 3.8 16:09:03 10° SSW 16:11:57 36° W 16:14:49 10° N
CZ-2D R/B 3.3 16:08:26 10° SSE 16:12:28 64° ENE 16:16:37 10° N
Cosmos 2278 Rocket 3.4 16:07:56 10° SW 16:13:15 41° WNW 16:18:35 10° N
SJ-7 4.3 16:10:02 10° SSE 16:13:34 47° ENE 16:17:07 10° N
PSLV R/B 3.6 16:10:00 10° SE 16:13:50 43° ENE 16:17:40 10° N
Cosmos 2082 Rocket 2.3 16:09:43 10° NNW 16:15:11 51° ENE 16:20:37 10° SE
SKYMED 2 3.8 16:11:06 10° N 16:15:27 72° WNW 16:19:45 10° SSW
NOAA 6 4.4 16:11:41 10° SE 16:16:24 38° ENE 16:21:07 10° N
Helios 1A Rocket 2.4 16:18:18 21° N 16:20:28 80° WNW 16:23:50 10° SSW
Cosmos 2369 Rocket 3.2 16:18:52 10° SSE 16:22:29 25° ESE 16:22:29 25° ESE
Cosmos 2251 Rocket 4.5 16:20:20 10° SW 16:25:23 47° WNW 16:30:30 10° N
SL-19 R/B 3.9 16:23:51 10° SSE 16:29:03 68° ENE 16:34:13 10° N
Cosmos 371 Rocket 3.3 16:26:08 10° SSW 16:30:54 78° WNW 16:34:20 19° NNE
YAOGAN 1 2.3 16:26:46 10° SSE 16:31:01 77° ENE 16:35:16 10° N
Cosmos 304 Rocket 3.9 16:27:30 10° SSW 16:32:12 72° WNW 16:35:37 19° N
H-2A R/B 3.4 16:31:22 10° WSW 16:33:05 13° SSW 16:34:17 10° S
SJ 16-02 2.2 16:31:26 10° SW 16:35:35 47° WNW 16:39:07 14° N
Cosmos 841 Rocket 4.0 16:33:05 10° N 16:37:10 40° NE 16:37:10 40° NE
DMSP B5D1-3 4.4 16:36:50 41° NE 16:38:27 62° E 16:43:28 10° S
Nadezhda 4 Rocket 3.9 16:32:55 10° N 16:39:12 88° W 16:45:24 10° S
ATLAS 2AS CENTAUR R/B 4.3 16:35:08 10° N 16:38:09 16° NNE 16:38:09 16° NNE
BREEZE M DEB (TANK) 4.0 16:38:29 10° SW 16:40:01 23° SSW 16:40:01 23° SSW
Resurs 1-3 3.5 16:38:31 10° S 16:42:48 82° WSW 16:47:07 10° NNW
Cosmos 1656 Rocket 3.5 16:39:15 10° SSW 16:44:45 89° ESE 16:47:09 36° NNE
Cosmos 1627 Rocket 4.4 16:41:31 10° N 16:47:31 55° E 16:53:34 10° SSE
COSMOS 2406 3.5 16:42:15 10° NNW 16:47:01 48° NE 16:47:01 48° NE
USA 215 3.7 16:41:32 10° SSE 16:47:57 59° SW 16:54:24 10° NW
Cosmos 1862 4.2 16:48:02 10° NNW 16:51:29 42° W 16:54:56 10° SSW
Cosmos 468 Rocket 4.4 16:46:30 10° NNW 16:51:36 60° WSW 16:56:37 10° S
Cosmos 2195 Rocket 4.4 16:46:47 10° N 16:53:07 79° E 16:59:27 10° S
Cosmos 489 Rocket 4.4 16:54:56 10° NNW 17:01:11 85° WSW 17:07:23 10° SSE
H-II Stage 2 3.5 16:52:39 10° W 17:02:10 35° SSW 17:02:47 34° S
Meteor 2-3 Rocket 3.6 17:01:31 10° N 17:07:14 89° E 17:07:28 83° SSE
USA 281 4.3 17:15:07 28° N 17:15:07 28° N 17:18:21 10° N
BlueWalker 3 4.2 17:13:01 10° WSW 17:14:33 22° W 17:14:33 22° W
Cosmos 968 Rocket 4.0 17:16:23 10° SSW 17:20:39 54° WSW 17:20:39 54° WSW
Cosmos 1634 Rocket 4.0 17:15:43 10° S 17:22:00 78° W 17:22:50 67° NNW
DELTA 2 R/B (1) 4.3 17:23:33 10° WSW 17:27:39 51° W 17:27:39 51° W
Cosmos 2369 Rocket 4.2 18:02:06 10° SW 18:04:20 22° WSW 18:04:20 22° WSW
